Regional Weather Roundup
Issued by NWS Albany, NY

Home | Current Version | Previous Version | Text Only | Print | Product List | Glossary On
Versions: 1 2 3 4 5 6 7 8 9 10 11 12 13 14 15 16 17 18 19 20 21 22 23 24 25 26 27
000
ASUS41 KALY 220410
RWRALY

NEW YORK STATE HOURLY WEATHER ROUNDUP
NATIONAL WEATHER SERVICE ALBANY NY
1200 AM EDT MON MAY 22 2017

NOTE: "FAIR" INDICATES FEW OR NO CLOUDS BELOW 12,000 FEET WITH NO
SIGNIFICANT WEATHER AND/OR NO OBSTRUCTIONS TO VISIBILITY.

NYZ032-033-038>043-046>054-057>066-NYZ062>081-082-084-220500-
EAST


CITY           SKY/WX    TMP DP  RH WIND       PRES   REMARKS
ALBANY         LGT RAIN  60  35  39 S15G23    30.16F
GLENS FALLS    NOT AVBL
POUGHKEEPSIE   CLOUDY    58  33  39 S6        30.22F
NEWBURGH       CLOUDY    57  37  47 S8        30.24F
MONTGOMERY     CLOUDY    58  34  40 S6        30.22F
WHITE PLAINS   CLOUDY    56  37  49 SE6       30.24F
ISLIP          CLOUDY    56  40  55 S7        30.26F
NEW YORK CITY  CLOUDY    60  43  53 S12       30.25F
CENTRAL PARK   CLOUDY    57  43  59 CALM      30.28F
$$

NYZ005>009-017-018-044>046-055-056-220500-
CENTRAL


CITY           SKY/WX    TMP DP  RH WIND       PRES   REMARKS
FULTON         CLOUDY    55  51  86 VRB6      30.02F
SYRACUSE       LGT RAIN  54  53  97 E9        30.04F
ROME           LGT RAIN  54  51  90 E13       30.11S
ELMIRA         LGT RAIN  60  40  47 SW16G23   30.08F
BINGHAMTON     CLOUDY    57  37  47 S12G21    30.11R
MONTICELLO     CLOUDY    54  37  54 SE8       30.22S
$$

NYZ026>034-041>043-087-220500-
NORTH


CITY           SKY/WX    TMP DP  RH WIND       PRES   REMARKS
WATERTOWN      LGT RAIN  55  53  93 VRB5      30.04F FOG
FORT DRUM      NOT AVBL
OGDENSBURG     LGT RAIN  54  52  94 E3        30.06F
MASSENA        LGT RAIN  53  51  93 E9        30.10F
SARANAC LAKE   LGT RAIN  51  50  96 S8        30.08F
PLATTSBURGH    NOT AVBL
$$

NYZ001>004-010>016-019>021-085-220500-
WEST


CITY           SKY/WX    TMP DP  RH WIND       PRES   REMARKS
NIAGARA FALLS  MOCLDY    61  53  75 S10       29.94F
BUFFALO        MOCLDY    60  54  80 S10       29.95F
DUNKIRK        CLOUDY    61  56  83 S24G32    29.94F
JAMESTOWN      CLOUDY    54  50  87 S10G20    30.02F
WELLSVILLE     CLOUDY    53  46  77 S10G16    30.08F
ROCHESTER      CLOUDY    56  50  80 SW9       29.98F
PENN YAN       CLOUDY    58  41  53 S14G20    30.04F
$$

             KEY
       WCI = WIND CHILL INDEX
       VSB = VISIBILITY
       HX  = HEAT INDEX
$$




USA.gov is the U.S. government's official web portal to all federal, state and local government web resources and services.